Simultaneous Nadir Overpasses (SNOs) Predictions

Prediction of SNOs between NOAA-21 and AQUA Satellite Orbit:

Table of predicted SNOs for the next 14.0 days since TLE Epoch: 3/1/2025
Index Date (NOAA-21) Time (NOAA-21) Lat,Lon (NOAA-21) SZA (NOAA-21 ) Date (AQUA) Time (AQUA) Lat,Lon (AQUA) SZA (AQUA ) Distance(km) Time Diff (sec)
1 03/02/2025 21:32:24 -81.33, -31.58 85.99 03/02/2025 21:33:06 -81.32, -31.72 85.99 2.36 42
2 03/02/2025 22:23:08 81.33, 136.15 93.94 03/02/2025 22:22:24 81.33, 136.06 93.98 1.49 44
3 03/05/2025 07:54:04 81.33, -6.73 93.03 03/05/2025 07:54:22 81.33, -6.76 93.03 1.00 18
4 03/05/2025 08:44:49 -81.33, 160.57 86.98 03/05/2025 08:43:42 -81.33, 160.71 86.96 2.37 67
5 03/07/2025 18:15:45 -81.33, 17.63 87.90 03/07/2025 18:15:38 -81.33, 17.78 87.91 2.40 7
6 03/10/2025 03:46:40 -81.33,-125.02 88.86 03/10/2025 03:47:31 -81.34,-124.90 88.90 2.20 51
7 03/10/2025 04:37:24 81.33, 42.57 91.10 03/10/2025 04:36:50 81.32, 42.39 91.14 3.12 34
8 03/12/2025 14:08:20 81.33,-100.63 90.21 03/12/2025 14:08:41 81.32,-100.45 90.17 3.18 21
9 03/12/2025 14:59:03 -81.33, 67.59 89.94 03/12/2025 14:58:00 -81.33, 67.43 89.88 2.73 63



Historial Predications of SNOs between NOAA-21 and AQUA
